sat.trackr.live / text

‹ back to catalog

STARLINK-32916

NORAD 62922 · 2025-027R

PAYLOAD ACTIVE UNKNOWN

§ Identity

Operator
Country
US
Launch date
2025-02-08
Launch site
AFETR
Launch vehicle
Mass (kg)
RCS (m²)

Purposes: comms

External: N2YO · Heavens-Above · Gunter

§ Orbital elements

Epoch: 2026-09-21T06:18:49.223808Z

Period
94.27 min
Inclination
43.0020°
Eccentricity
0.0002013
Mean motion
15.27592716 rev/d
Perigee alt
481.6 km
Apogee alt
484.4 km
Semi-major
6,861.1 km
B*
5.2166e-4
RAAN
104.2915°
Arg perigee
266.6049°
Mean anomaly
93.4572°
Rev number
9,145

§ Raw data

STARLINK-329161 62922U 25027R   26264.26306972  .00014126  00000+0  52166-3 0  99982 62922  43.0020 104.2915 0002013 266.6049  93.4572 15.27592716 91457

JSON: /api/v1/satellites/62922 · /tle

For live sub-satellite position, see the globe view (requires WebGL).

§ Visibility from observer

Set your observer location to see the next 7 days of passes ≥ 10°. The values pass through the URL so the page stays shareable.

No JS? Fill the form by hand. The geolocation button needs JavaScript.